Flag for U.S.A. Weather past 2 weeks in Urbana, Illinois, U.S.A.

Now
37 °F

Sunny.


Feels Like: 33 °F
Forecast: 26 / 45 °F
Wind: 5 mph from Southeast

Location: University Of Illinois-Willard Airport

Current Time: Mar 28, 2015 at 8:07:43 PM

Latest Report: Mar 28, 2015 at 6:53 PM


Visibility: 10 mi

Pressure: 30.31 "Hg

Humidity: 41%

Dew point: 15 °F

Location of UrbanaLocation

Historic Weather in Urbana — Graph

°F

Urbana temperature yesterday

Maximum temperature yesterday: 37 °F (at 3:53 PM)
Minimum temperature yesterday: 23 °F (at 11:53 PM)
Average temperature yesterday: 31 °F

Past Weeks' High & Low Weather Summary

 TemperatureHumidityPressure
High73 °F (Mar 16, 2:53 PM)100% (Mar 13, 10:53 PM)30.37 "Hg (Mar 13, 10:53 PM)
Low16 °F (Mar 28, 6:53 AM)30% (Mar 28, 4:53 PM)29.81 "Hg (Mar 25, 1:00 AM)
Average42 °F70%30.14 "Hg
* Reported Mar 13 6:53 PM — Mar 28 6:53 PM, Urbana, Weather by CustomWeather, © 2015

Note: Actual official high and low records may vary slightly from our data, if they occured in-between our weather recording intervals... More about our weather records

Advertising

Urbana weather history for previous 24 hours

 ConditionsComfort  
Time TempWeatherWind HumidityBarometerVisibility
6:53 PM
Sat, Mar 28
37 °FSunny.5 mph41%30.31 "Hg10 mi
5:53 PM39 °FSunny.8 mph33%30.31 "Hg10 mi
4:53 PM39 °FSunny.No wind30%30.31 "Hg10 mi
3:53 PM39 °FSunny.No wind33%30.31 "Hg10 mi
2:53 PM38 °FSunny.3 mph34%30.32 "Hg10 mi
1:53 PM37 °FSunny.5 mph37%30.34 "Hg10 mi
12:53 PM36 °FSunny.7 mph38%30.35 "Hg10 mi
11:53 AM33 °FSunny.8 mph41%30.36 "Hg10 mi
10:53 AM31 °FSunny.9 mph49%30.36 "Hg10 mi
9:53 AM30 °FSunny.8 mph54%30.34 "Hg10 mi
8:53 AM26 °FSunny.9 mph63%30.33 "Hg10 mi
7:53 AM23 °FSunny.5 mph78%30.32 "Hg10 mi
6:53 AM16 °FClear.5 mph84%30.29 "Hg10 mi
5:53 AM19 °FClear.No wind81%30.27 "Hg10 mi
4:53 AM20 °FClear.3 mph78%30.24 "Hg10 mi
3:53 AM20 °FClear.No wind78%30.24 "Hg10 mi
2:53 AM20 °FClear.5 mph74%30.24 "Hg10 mi
1:53 AM21 °FClear.6 mph74%30.24 "Hg10 mi
12:53 AM22 °FClear.9 mph75%30.24 "Hg10 mi
11:53 PM
Fri, Mar 27
23 °FClear.8 mph74%30.24 "Hg10 mi
10:53 PM24 °FClear.8 mph75%30.23 "Hg10 mi
9:53 PM26 °FClear.8 mph69%30.21 "Hg10 mi
8:53 PM25 °FClear.6 mph66%30.19 "Hg10 mi
Weather by CustomWeather, © 2015

See weather overviewHow to use our weather pages